GFSSE_850_spd_114.txt.gz
Wind_Speed
4 2 20 21 21 19 17 15 13 11 10 10 11 13 13 10 9 8 8 8 8 10 10 11 10 10 10 12 11 11 10 7 4 4 3 4 9 11 12 13 12 12 13
5 7 17 21 21 19 17 15 13 12 11 11 11 13 14 11 9 8 8 8 7 8 9 9 9 9 8 9 9 10 9 8 6 4 3 6 11 12 13 14 10 10 12
9 9 15 23 21 19 17 15 13 13 12 12 11 12 13 12 9 8 8 7 7 8 8 8 8 7 7 7 7 7 7 6 5 3 4 8 11 15 15 13 11 11 12
7 10 14 25 22 19 17 16 14 14 13 12 12 12 14 12 10 9 8 7 7 7 8 8 7 7 7 7 6 6 6 7 4 3 8 5 4 9 12 10 12 11 12
7 13 15 26 23 19 18 16 15 15 14 13 13 14 15 13 11 9 9 8 8 6 7 7 7 7 7 7 7 7 7 7 5 6 7 11 8 9 10 9 10 11 13
7 11 11 26 23 20 19 18 16 15 14 14 14 15 15 13 12 10 10 9 9 7 8 8 8 8 8 7 7 7 7 8 6 8 10 12 12 7 9 11 12 13 14
6 14 12 19 23 22 20 18 16 15 15 15 15 15 15 14 12 11 11 10 9 8 8 8 9 9 8 8 8 8 8 7 7 10 14 6 10 11 9 13 13 13 13
7 15 15 16 23 23 21 19 17 16 15 15 15 16 16 15 14 13 13 12 10 10 9 9 10 10 9 10 9 9 8 8 8 14 15 11 12 9 10 14 13 14 15
9 12 12 18 22 24 22 20 19 17 16 16 16 16 16 16 15 15 15 14 12 12 11 10 11 11 11 11 11 11 10 10 10 10 15 5 9 6 11 13 14 15 16
9 15 17 15 24 27 25 23 21 20 18 16 16 17 16 16 16 16 17 16 15 14 13 12 12 13 12 12 13 13 12 13 12 13 9 8 6 8 8 13 15 15 16
8 13 17 16 22 29 27 26 24 22 20 19 19 19 18 18 18 19 20 18 17 16 15 15 14 15 14 14 15 15 15 15 13 10 11 7 6 12 10 12 15 17 19
11 11 14 18 17 26 27 27 25 24 23 22 22 21 21 20 20 21 21 21 19 19 18 17 17 16 16 16 16 17 18 17 12 5 9 10 4 19 15 11 15 16 18
13 15 17 23 21 22 20 21 25 27 26 25 24 23 22 21 19 14 15 17 20 21 21 21 20 20 19 17 13 16 15 19 12 14 18 19 17 17 12 13 15 18 18
8 12 18 17 18 26 27 22 19 22 25 26 26 25 24 24 20 20 21 23 21 20 23 23 20 20 20 18 14 17 18 12 10 17 17 8 13 12 11 13 15 16 20
10 11 12 15 14 15 22 23 21 18 23 20 19 20 25 22 23 22 25 22 24 18 17 21 18 17 17 15 17 19 20 19 21 22 21 17 13 12 12 14 14 16 21
7 3 2 6 15 15 18 22 21 20 24 22 25 23 22 25 21 26 23 23 23 23 20 18 20 22 22 21 20 21 26 24 22 22 20 16 14 14 14 15 16 20 21
2 5 4 10 7 13 13 18 23 20 24 23 25 27 28 28 30 26 28 27 25 23 23 19 21 20 19 21 22 23 22 22 21 20 18 18 17 14 15 14 19 23 22
1 4 3 11 13 15 13 15 18 22 20 28 24 28 26 31 30 32 35 31 28 27 24 24 22 28 23 23 21 23 23 21 20 19 20 19 20 18 16 17 20 23 25
4 6 5 8 12 17 21 21 21 20 22 26 27 27 30 26 32 32 33 32 36 30 28 27 27 25 26 27 23 20 20 19 19 19 22 20 23 24 20 17 19 21 24
3 4 4 5 8 13 15 21 27 27 23 26 28 30 30 31 30 34 33 33 30 40 39 28 28 27 28 28 21 16 17 19 18 22 22 20 23 23 24 17 18 20 22
3 4 5 6 7 9 9 11 11 14 20 24 27 32 31 32 34 34 37 38 38 35 38 41 29 32 34 28 21 24 23 24 24 23 22 22 22 23 21 17 16 19 19
6 7 7 7 8 9 8 13 16 20 26 24 26 28 37 37 36 40 38 38 41 41 37 35 37 37 35 31 28 22 16 24 28 30 29 27 26 25 25 19 15 17 13
7 10 10 10 10 12 13 14 15 18 22 28 30 29 26 32 37 40 41 43 42 44 43 39 39 45 42 34 32 21 10 13 10 17 26 24 23 25 26 21 20 17 11
7 10 14 16 16 14 18 19 18 21 24 24 26 27 24 28 39 42 44 43 45 48 45 41 40 40 40 35 36 37 28 7 11 6 15 20 21 25 25 22 22 20 17
10 12 15 17 18 19 21 21 24 27 29 31 33 35 39 33 24 43 46 44 45 45 46 45 42 42 42 42 40 39 39 31 19 15 9 16 17 19 20 21 21 23 24
13 15 16 17 19 22 23 24 26 28 31 34 36 39 39 44 36 31 47 47 47 43 42 43 42 43 43 44 41 40 36 34 37 30 24 16 17 15 14 16 21 23 22

GFSSE_850_spd_117.txt.gz
Wind_Speed
4 6 19 20 20 19 17 16 14 12 12 12 13 13 11 9 8 7 7 5 6 7 8 9 10 11 12 12 9 8 6 4 2 1 1 2 7 10 11 12 12 14 15
1 4 16 20 20 20 18 16 14 13 12 13 13 13 12 10 9 7 7 6 6 7 8 9 9 9 10 11 10 9 9 7 4 2 3 6 11 12 12 10 12 12 14
2 7 14 20 20 20 18 17 15 13 13 13 13 13 13 11 9 8 7 6 6 6 8 8 8 7 8 9 9 8 7 5 4 1 4 7 12 14 12 10 10 11 13
3 8 11 21 20 20 19 17 16 14 14 14 14 13 13 13 10 8 8 7 6 5 6 6 6 6 7 7 5 4 4 4 3 1 5 8 7 10 9 9 8 9 11
4 8 8 20 22 21 20 18 17 15 15 14 14 14 14 14 11 9 8 8 8 6 6 6 5 5 6 5 4 3 3 4 2 4 6 5 4 8 8 6 9 11 11
6 9 10 17 25 22 20 18 17 16 16 16 15 15 15 14 12 11 10 9 8 7 6 7 6 6 7 6 5 4 3 3 2 5 7 4 6 6 7 7 9 10 12
7 10 11 14 25 23 21 19 18 17 18 17 17 17 17 16 13 12 11 10 9 8 7 7 8 8 8 7 5 4 3 3 3 6 5 4 7 3 7 8 9 10 12
10 12 11 10 22 23 23 21 19 18 18 18 18 17 18 16 14 13 12 11 10 10 9 8 8 8 8 7 6 4 4 4 4 6 8 3 5 9 8 8 10 12 13
8 10 14 14 16 23 24 22 21 20 19 18 18 18 18 17 16 14 13 13 12 11 10 9 9 9 9 8 7 6 5 5 5 7 4 4 11 5 7 9 12 13 14
5 12 15 16 16 22 25 24 22 21 20 19 19 19 19 18 17 17 16 16 15 14 13 12 11 11 11 10 8 8 7 7 6 6 7 4 8 4 8 10 12 13 14
8 12 14 19 16 19 27 26 25 23 22 21 21 21 20 20 20 19 18 18 17 16 15 15 13 13 12 12 11 10 9 8 7 7 9 8 10 7 6 10 10 13 15
13 14 13 12 16 19 29 28 27 25 25 24 23 23 22 21 20 20 19 20 19 19 17 17 16 15 15 14 12 11 10 10 7 10 11 9 8 7 12 10 11 13 15
16 19 19 15 14 17 28 30 28 27 26 25 24 24 23 22 21 22 21 21 22 21 21 21 20 19 17 16 14 12 10 7 9 12 13 12 11 13 12 11 14 14 16
17 11 15 17 16 20 19 27 25 26 27 27 26 26 25 25 24 23 23 22 23 22 22 23 23 20 18 16 16 15 12 10 7 15 15 14 13 11 11 13 15 13 14
20 11 14 17 18 20 21 23 21 24 25 29 28 27 26 27 26 24 24 22 19 21 19 18 23 23 18 15 14 16 15 13 12 15 16 16 15 12 12 15 14 15 15
7 8 8 12 8 11 16 23 23 22 21 20 22 24 26 28 27 27 26 26 26 22 20 19 16 21 19 17 14 15 18 19 18 18 19 20 17 16 16 16 15 16 18
9 15 11 10 7 7 13 17 26 20 23 25 22 24 26 24 25 26 28 27 27 24 21 20 19 18 20 23 22 20 21 23 24 23 19 20 19 19 18 18 17 19 19
8 5 8 4 3 3 3 9 16 26 32 26 29 30 31 28 27 28 29 31 28 26 27 25 24 22 20 24 23 22 23 24 22 20 19 20 20 19 20 19 19 18 18
7 5 5 6 12 12 10 14 16 21 21 22 24 27 32 28 27 33 36 34 34 35 33 31 27 26 25 27 25 23 22 24 23 19 19 20 21 20 21 19 19 19 20
7 6 8 10 13 14 16 16 19 22 23 23 26 26 28 30 29 31 36 41 38 37 36 36 33 30 28 27 28 25 23 21 21 21 20 19 21 22 22 21 22 21 21
6 2 5 8 10 13 13 14 17 19 25 28 22 26 29 31 35 34 33 37 40 42 45 37 36 32 31 29 26 25 23 21 21 22 22 23 24 24 23 23 22 22 21
4 3 4 5 10 12 13 14 16 21 23 24 29 26 23 33 29 38 37 38 41 43 42 49 40 37 32 33 31 28 21 24 29 28 27 26 25 25 26 25 22 23 19
8 6 7 10 12 14 16 18 18 18 21 25 28 33 29 29 28 32 39 40 43 41 41 42 44 43 40 38 37 27 15 17 23 32 34 32 31 30 30 28 24 22 19
7 7 11 12 15 16 18 20 21 22 24 24 26 29 33 35 34 28 33 37 45 43 42 40 42 42 45 41 40 38 32 16 14 10 20 24 26 29 28 27 24 23 23
8 11 14 16 18 20 21 21 23 25 26 29 31 31 32 34 40 37 32 33 39 45 45 41 45 44 40 44 45 45 44 34 20 18 14 19 20 23 22 24 23 23 22
11 13 15 18 22 23 24 25 25 26 27 29 31 34 35 35 39 43 45 37 35 41 46 46 45 46 42 42 44 44 48 45 43 25 23 18 21 20 19 19 22 23 22

GFSSE_850_spd_120.txt.gz
Wind_Speed
7 18 22 21 21 20 18 18 17 16 15 15 15 13 11 11 10 8 8 8 8 9 11 12 13 13 12 11 6 4 2 2 3 3 3 3 6 10 11 11 12 15 15
7 9 19 20 20 20 19 18 17 16 15 15 16 15 13 11 11 9 8 7 8 9 10 11 11 11 11 9 6 4 2 1 1 1 2 4 9 11 11 11 11 12 12
5 9 13 20 20 20 20 18 17 16 15 16 17 17 14 12 11 9 9 9 8 9 10 11 10 9 9 8 7 5 4 4 3 2 3 5 8 10 9 9 9 9 11
4 8 11 20 21 21 20 19 18 16 16 16 17 17 16 14 12 10 9 9 9 9 10 10 9 9 8 7 7 6 4 5 5 3 4 8 8 8 7 6 8 10 11
4 7 9 18 22 21 20 20 19 18 17 17 17 17 17 16 13 12 11 10 9 9 10 10 9 9 8 8 6 5 6 7 4 5 7 5 7 5 3 3 7 8 10
6 6 8 9 21 22 21 21 20 18 18 17 18 18 18 17 15 13 12 11 10 10 10 9 9 9 8 7 5 5 6 7 6 6 8 4 4 9 8 4 6 9 10
6 5 8 8 18 24 22 22 20 19 19 19 18 18 18 18 16 14 12 12 11 10 9 8 8 7 6 6 6 6 7 8 6 7 8 2 7 7 8 7 10 11 11
6 8 9 10 14 25 24 23 22 20 20 19 19 19 19 19 17 15 14 13 12 11 10 9 8 8 8 8 7 7 8 9 7 8 8 4 9 9 9 9 9 11 11
3 8 10 11 11 22 23 23 22 21 21 20 20 20 20 19 18 17 16 15 14 13 12 11 10 9 10 9 9 9 10 10 8 8 9 10 17 10 5 8 9 12 13
5 6 9 13 16 18 25 25 24 22 22 21 20 21 21 21 19 18 17 17 16 15 14 13 11 10 11 11 10 10 11 11 9 9 9 7 11 8 9 10 9 14 14
7 10 11 12 14 18 23 27 27 25 24 22 22 22 23 23 23 22 21 19 19 18 16 15 14 12 12 12 11 11 11 10 11 12 11 11 13 13 11 6 9 14 15
9 10 15 17 14 16 20 28 30 28 28 27 25 24 25 25 24 24 23 22 22 21 20 19 17 16 14 14 13 13 12 11 12 13 14 12 11 11 12 9 11 12 15
12 10 17 21 18 16 16 25 31 31 29 28 27 26 26 26 26 26 25 26 26 25 24 23 21 20 17 16 15 14 13 12 14 14 15 15 11 12 12 15 13 14 15
20 18 16 20 20 17 15 14 28 28 29 29 28 27 27 28 28 29 28 28 28 28 27 26 24 21 19 18 17 16 15 14 13 16 17 17 15 17 17 16 16 15 16
23 20 11 16 20 20 17 14 18 27 28 28 27 28 29 30 31 30 31 30 30 30 29 28 27 24 22 21 20 19 18 17 15 16 18 18 17 15 14 16 17 17 17
10 10 17 19 18 17 19 17 19 21 23 28 29 31 32 33 33 33 33 32 31 29 26 27 24 22 24 23 21 19 19 17 17 17 18 17 17 18 18 18 18 18 19
10 12 17 20 21 19 18 19 20 26 23 26 28 28 26 32 35 35 34 34 34 32 27 25 25 24 21 24 22 20 18 18 18 19 19 20 20 20 18 19 19 20 19
16 15 14 12 10 8 8 11 17 21 29 31 29 26 30 37 36 31 32 35 35 33 32 29 29 28 26 24 26 24 23 21 22 23 22 23 23 22 22 21 21 21 20
19 15 12 10 9 8 8 10 14 16 22 28 29 34 32 58 40 31 32 31 35 35 35 34 33 31 30 28 27 22 24 26 26 25 25 24 23 23 23 21 22 22 22
19 17 14 11 10 11 13 14 15 17 21 24 24 19 23 29 35 54 41 32 36 36 39 40 37 35 34 31 27 28 23 23 23 24 25 24 23 21 22 21 22 23 24
12 10 8 7 7 8 10 12 15 17 18 23 28 23 19 18 27 32 34 36 36 37 41 42 42 39 37 35 33 31 27 26 24 24 24 25 25 24 22 22 23 24 24
8 6 3 4 7 10 12 12 13 17 20 22 24 26 29 26 22 25 26 34 38 38 38 46 45 37 38 34 38 32 21 28 30 29 27 27 26 24 25 24 24 23 24
9 7 7 8 9 10 13 17 16 17 18 23 25 27 27 29 30 27 25 25 33 39 45 42 48 39 40 31 36 33 13 14 26 32 34 32 29 28 28 27 25 25 25
12 9 7 8 9 11 14 18 21 23 25 24 26 28 28 28 30 34 34 31 27 30 36 39 41 42 45 38 44 34 37 19 13 12 28 36 35 32 32 31 28 28 26
9 10 10 11 12 14 15 18 21 24 27 29 30 31 30 29 30 32 33 37 37 32 29 36 37 40 40 42 38 41 39 43 29 23 20 26 31 32 30 28 25 25 25
12 13 14 16 18 19 20 21 23 25 28 31 33 34 35 33 32 31 33 36 38 38 35 32 34 38 41 43 41 48 41 38 36 32 27 26 28 28 26 23 23 21 22

GFSSE_850_spd_123.txt.gz
Wind_Speed
9 24 25 25 24 22 20 18 19 18 17 16 15 13 11 9 9 9 8 9 9 11 14 14 13 11 11 7 5 4 3 3 3 3 2 4 7 9 11 10 12 12 13
8 22 25 24 23 22 21 20 18 17 16 17 16 14 12 11 10 9 9 9 9 11 12 12 12 11 9 8 5 3 2 1 1 1 3 4 7 9 9 10 10 10 11
9 15 22 22 22 22 21 20 18 17 16 17 17 16 14 12 10 9 9 10 10 10 11 11 11 10 10 9 6 4 3 3 3 2 3 5 7 8 8 10 11 10 10
7 10 17 21 22 21 21 20 19 17 16 17 17 17 16 14 12 10 9 10 10 10 11 11 11 11 10 9 8 6 5 6 6 3 5 7 10 10 8 4 5 8 10
3 8 12 18 22 22 20 19 18 17 17 17 18 18 17 15 13 11 10 10 11 11 12 13 12 11 10 9 8 7 8 10 7 7 9 8 8 9 6 7 8 9 10
2 7 11 14 21 22 21 20 19 18 17 17 18 18 18 17 15 13 11 11 11 12 12 12 12 11 10 9 8 9 10 11 8 9 10 8 8 10 8 9 10 11 11
2 5 9 10 13 20 21 20 20 19 19 19 19 19 19 18 17 15 14 13 12 12 12 12 11 11 11 11 10 10 11 11 9 10 12 7 10 10 13 10 9 10 11
3 5 9 11 11 17 23 22 21 21 20 20 20 20 20 20 19 17 16 15 14 13 13 13 13 12 12 11 11 11 12 12 10 11 12 10 10 11 11 8 9 11 11
4 5 7 10 11 12 22 23 22 22 22 22 22 21 22 22 21 19 18 18 17 16 15 14 13 13 12 12 11 11 13 12 11 11 12 11 11 8 11 10 11 11 12
7 5 6 8 11 12 17 23 23 23 23 23 23 24 24 24 24 22 20 19 19 19 17 16 15 14 13 13 12 12 13 13 13 12 12 10 12 15 12 12 10 11 13
10 8 7 8 10 11 14 21 24 25 25 25 25 25 25 26 26 24 23 21 21 20 19 18 17 16 14 14 14 14 14 14 14 13 13 12 10 13 9 10 10 13 14
11 9 8 9 11 14 15 18 25 27 28 28 28 26 26 26 26 25 24 23 22 22 21 20 19 18 17 16 16 16 16 15 17 16 15 16 15 16 13 12 9 12 14
12 10 8 11 14 15 16 17 21 28 29 30 29 28 27 26 27 28 27 26 26 26 26 25 23 23 20 18 18 18 17 17 18 18 17 17 18 17 15 13 14 13 15
18 15 15 14 17 16 18 17 16 24 30 30 30 28 28 28 29 30 29 28 28 28 28 28 27 25 22 21 20 19 19 19 19 20 20 20 18 18 18 13 12 14 15
22 21 22 19 17 20 20 19 19 18 26 27 28 28 28 29 29 30 30 30 30 30 30 30 29 28 26 24 23 22 22 21 21 20 21 22 20 19 17 18 15 17 17
20 19 20 18 18 19 19 19 19 18 16 24 27 29 30 29 29 30 31 30 31 31 31 31 31 30 29 27 26 25 25 24 24 23 21 21 20 19 18 17 16 17 18
17 14 13 19 21 21 19 19 20 21 22 25 32 31 29 28 29 30 31 31 31 31 31 31 31 31 30 29 30 29 26 26 27 25 23 21 20 19 20 20 19 18 18
13 12 15 18 21 20 19 18 17 18 20 25 30 27 28 28 29 32 32 30 29 32 34 33 32 30 32 33 31 31 29 26 26 25 23 23 22 21 20 21 21 21 20
18 18 18 17 16 17 16 13 12 13 14 15 17 19 21 31 33 40 44 30 28 28 37 37 36 34 34 36 36 30 31 29 28 27 25 25 23 22 22 21 23 23 22
19 17 15 14 14 13 13 13 13 14 16 18 19 16 18 21 22 25 35 53 46 47 38 35 37 35 36 36 36 35 32 32 32 32 30 27 26 25 24 23 25 25 24
12 9 8 6 6 7 9 10 12 14 16 18 21 19 17 20 17 19 22 28 39 56 48 36 36 37 36 37 37 36 35 34 33 33 31 31 30 28 25 24 26 26 25
12 10 6 3 1 3 4 6 9 10 11 15 16 17 17 19 20 22 15 22 26 49 52 50 47 41 38 37 36 32 30 34 38 36 34 33 31 28 27 26 25 26 25
14 14 12 12 10 8 7 7 8 10 12 17 19 21 20 20 21 20 21 22 22 22 32 42 43 44 40 39 42 35 17 20 26 33 38 38 35 33 30 26 25 27 27
14 12 14 14 15 14 14 13 14 17 18 18 21 22 22 23 24 25 24 25 26 28 29 28 31 42 44 44 38 25 55 43 12 21 25 38 39 36 35 31 29 29 28
17 18 16 16 18 18 17 17 17 18 21 23 25 26 26 25 26 27 28 28 29 28 30 31 29 31 34 40 48 39 41 41 43 39 35 33 32 39 40 37 33 32 30
22 22 23 22 24 23 22 21 21 22 22 24 26 28 29 29 28 27 29 30 31 31 31 31 31 33 31 33 39 45 44 45 44 39 40 52 42 37 34 36 35 34 31

GFSSE_850_spd_129.txt.gz
Wind_Speed
16 19 19 19 19 17 16 15 15 13 11 12 12 13 11 11 11 11 12 12 11 10 11 12 12 11 9 8 8 6 4 2 2 2 3 5 7 10 12 12 12 13 13
9 14 19 19 19 18 16 15 14 14 11 10 12 12 11 9 9 9 11 11 11 10 11 12 12 11 9 7 7 6 4 2 2 2 4 6 8 10 11 11 12 12 12
3 16 20 19 19 18 18 17 15 14 13 12 12 12 12 10 9 7 10 11 11 11 12 13 12 11 9 8 6 5 4 3 0 1 3 6 8 9 10 11 11 11 11
4 11 20 21 21 20 19 18 17 16 15 13 13 13 13 12 10 7 8 11 12 12 14 14 12 11 9 9 6 5 4 4 2 2 3 6 8 10 10 10 10 9 10
4 8 17 19 20 21 20 19 18 17 16 15 14 14 13 14 13 10 8 10 12 13 13 14 12 11 10 9 8 7 7 5 3 4 4 7 10 9 9 7 9 10 10
3 5 12 16 18 19 19 19 18 17 16 16 16 16 15 15 15 13 10 10 12 13 13 13 12 12 11 10 9 9 8 6 4 4 4 7 9 9 7 6 9 10 11
2 3 9 13 16 17 18 18 18 18 18 17 17 18 17 16 16 15 13 12 12 13 13 13 12 12 11 11 10 10 9 8 6 6 6 7 7 9 7 6 8 10 11
2 1 6 10 13 15 17 18 19 19 19 19 19 20 20 19 19 18 16 14 14 14 14 14 13 13 13 13 12 11 10 9 8 8 9 9 7 10 9 8 8 10 11
4 3 4 8 11 13 14 17 19 20 21 20 20 21 22 21 20 19 18 16 15 15 15 15 14 14 14 13 13 12 11 11 11 10 10 12 10 9 7 10 9 9 12
8 8 7 8 10 12 13 16 19 20 20 20 20 21 22 22 22 21 20 19 17 17 16 16 15 15 14 14 14 13 13 13 13 12 12 12 13 12 11 13 12 12 14
12 11 11 10 10 10 10 12 15 18 20 20 21 22 23 24 25 24 23 21 20 19 18 17 16 15 15 14 14 15 15 14 14 14 13 13 14 13 13 13 14 14 14
16 13 12 13 12 12 11 12 12 14 18 21 22 23 25 26 26 26 25 24 22 21 20 20 18 16 16 16 16 17 18 16 16 16 15 14 15 15 13 19 15 15 15
19 17 16 16 14 14 14 14 15 15 16 19 22 23 25 27 27 28 28 27 25 23 23 22 21 20 20 19 18 19 19 18 19 19 17 16 16 17 14 16 14 15 15
19 18 17 17 17 17 17 18 18 18 17 18 19 22 24 26 28 28 29 29 27 26 26 25 25 24 23 22 21 20 21 21 21 21 20 18 18 18 19 19 19 17 17
14 17 17 18 19 21 22 21 21 21 20 20 19 19 22 24 23 24 26 28 28 26 26 27 28 26 26 27 25 24 23 22 22 23 23 21 20 20 21 23 20 20 18
11 14 16 18 18 19 18 20 21 22 21 20 17 18 20 22 23 24 25 23 24 23 24 27 28 28 28 28 27 28 26 24 24 24 24 24 23 23 23 24 22 21 21
5 9 14 15 15 14 11 11 16 16 16 17 17 18 19 22 23 23 25 28 28 21 20 23 26 28 29 30 29 28 27 27 27 26 26 27 25 24 24 24 25 25 21
2 3 4 7 10 10 9 7 11 13 13 14 16 18 19 22 24 26 28 28 32 36 28 21 23 27 29 31 30 29 28 28 28 28 28 29 29 27 27 26 26 26 25
5 3 1 0 2 4 7 7 7 7 8 9 9 10 11 14 17 20 26 33 33 34 34 41 36 29 35 34 31 29 28 27 27 27 29 29 29 29 29 26 26 26 25
11 9 8 5 3 3 3 5 6 6 8 9 10 11 12 13 15 16 19 23 28 31 32 38 45 42 41 29 25 24 25 27 28 29 29 30 28 26 26 27 27 28 27
14 13 13 11 9 6 2 5 7 8 9 9 10 11 13 14 15 18 22 24 24 24 23 28 37 45 49 42 33 35 36 35 29 28 28 25 28 26 26 28 29 29 28
18 18 18 18 17 15 13 9 8 9 11 12 13 13 13 14 16 17 19 22 25 24 25 24 26 32 36 38 42 33 32 35 33 36 29 25 26 27 29 31 31 31 31
19 22 21 20 19 18 16 16 14 11 11 13 14 16 16 17 17 19 19 21 23 25 27 28 27 29 32 33 34 31 19 26 28 21 30 29 28 30 31 33 29 31 32
14 17 20 20 21 20 20 19 19 19 20 19 21 21 21 20 20 20 21 22 23 25 26 29 31 31 31 35 32 32 38 28 13 18 21 27 26 33 42 51 42 36 35
10 14 19 20 23 23 22 22 22 22 21 21 23 24 24 24 23 20 21 25 27 26 26 28 30 33 34 33 34 32 40 44 36 32 29 34 45 47 44 43 63 54 42
17 18 20 25 26 28 29 27 26 24 24 25 23 23 24 25 25 25 23 23 26 29 28 28 31 33 35 37 37 37 31 29 42 40 38 38 41 50 45 38 49 59 54

GFSSE_850_spd_132.txt.gz
Wind_Speed
9 17 13 12 13 13 13 12 15 15 16 15 13 13 11 10 10 11 11 10 11 12 14 14 12 11 9 8 7 5 2 1 2 2 2 4 7 8 9 10 13 11 11
9 13 14 13 14 14 13 12 13 14 15 16 15 12 10 9 9 9 11 11 11 11 13 13 13 11 9 8 7 5 3 0 1 1 2 5 7 9 10 12 15 10 11
6 12 15 16 16 15 14 13 13 14 15 16 15 13 11 9 8 8 10 11 11 11 12 13 12 11 10 8 6 5 4 2 0 1 5 6 5 9 9 10 12 10 10
4 12 17 17 17 17 16 16 15 15 14 15 15 15 13 12 10 7 8 10 12 12 12 13 12 12 10 9 8 6 5 2 2 2 5 5 6 9 9 9 9 8 10
3 8 14 16 16 16 17 16 16 16 15 15 16 16 15 15 13 10 9 9 11 12 12 13 13 12 10 10 9 8 6 3 3 3 5 6 8 8 9 7 8 9 8
4 3 8 14 16 16 17 17 17 17 16 16 16 17 17 17 16 13 11 9 11 12 12 13 13 12 11 10 10 9 8 5 4 3 6 9 9 10 9 7 8 9 10
4 1 4 10 13 15 16 17 17 16 16 16 17 17 18 18 17 15 13 11 11 12 12 13 13 12 11 11 10 10 9 6 5 7 7 9 10 10 10 8 10 10 11
3 1 4 8 12 14 16 17 17 17 17 17 17 18 19 19 18 17 16 15 13 12 13 13 13 12 12 12 11 11 11 8 7 8 8 8 12 10 10 9 10 11 13
5 4 4 8 11 13 14 16 17 18 18 18 18 19 20 20 20 19 19 17 16 15 14 13 13 13 13 13 13 12 12 10 8 8 9 10 13 9 10 10 12 12 13
8 8 8 7 9 12 13 14 15 17 18 19 19 19 21 21 21 21 21 21 19 17 15 15 14 14 14 14 14 14 14 14 13 10 11 11 15 12 10 10 13 13 13
7 7 9 9 10 11 12 13 14 16 18 20 20 20 21 22 23 24 24 24 22 20 17 16 15 15 15 16 16 16 16 15 12 12 12 17 14 14 13 13 15 15 13
8 7 8 9 11 12 13 13 14 15 15 18 20 20 22 22 19 20 22 26 24 22 20 19 18 18 17 14 14 18 19 14 13 14 13 18 15 15 15 13 17 15 15
10 9 7 9 13 13 10 11 11 14 15 16 18 18 17 20 20 21 20 23 27 25 24 23 22 22 17 15 15 15 15 15 15 15 16 19 17 17 16 15 17 20 17
7 7 13 14 14 15 14 10 14 18 19 19 19 19 22 22 24 24 21 22 22 21 24 23 23 22 20 19 19 18 18 17 16 16 17 19 19 19 18 17 17 18 16
7 7 10 14 15 16 17 17 18 19 20 21 20 20 19 23 23 25 27 26 24 24 23 23 23 22 22 21 20 20 21 20 20 19 18 23 21 21 21 20 20 22 21
9 8 7 9 12 15 16 15 13 16 18 17 16 18 19 20 22 24 24 25 25 26 27 27 25 24 25 22 21 23 24 23 22 22 21 21 23 23 23 23 23 23 23
10 9 8 7 8 10 12 11 9 12 15 16 16 18 19 19 19 19 20 23 24 23 25 24 28 28 26 26 26 24 27 30 28 25 23 21 22 25 25 25 25 25 25
6 7 7 7 6 6 6 6 8 12 12 12 14 17 21 20 21 22 22 20 21 23 24 27 29 30 29 25 26 26 28 30 32 31 26 24 23 23 27 26 27 26 26
8 8 7 7 6 6 3 4 5 5 6 8 10 13 14 17 20 23 23 26 24 23 25 27 27 29 33 38 38 30 32 36 37 32 28 26 26 25 27 26 27 28 28
11 12 12 13 12 8 6 3 3 5 7 9 11 12 12 13 14 14 16 18 19 20 22 22 23 25 32 35 31 32 41 41 40 38 30 26 26 27 25 28 27 29 29
11 10 11 11 12 11 10 7 6 9 7 7 12 14 15 16 18 18 20 21 22 21 22 21 23 25 25 31 41 44 46 55 45 29 27 26 28 27 30 28 27 23 27
12 12 12 12 13 14 13 12 11 11 13 14 13 14 16 17 18 19 20 20 23 24 24 22 22 25 25 26 27 31 30 41 38 39 38 38 34 31 32 29 27 28 28
7 9 11 13 13 13 13 14 13 12 11 10 15 16 17 18 19 20 21 22 23 24 25 25 24 24 24 30 30 29 19 24 29 31 38 41 39 39 36 34 35 33 29
12 14 15 16 16 16 18 17 15 13 13 15 16 18 20 20 20 20 21 24 26 26 27 24 22 25 28 31 32 33 36 33 22 23 25 34 38 36 44 39 40 35 32
11 13 15 17 20 19 18 19 18 18 17 16 17 19 19 21 21 22 23 24 24 26 28 29 28 27 24 25 24 28 37 32 36 36 23 23 31 34 37 39 41 39 49
11 12 14 16 18 21 22 21 20 19 20 20 19 21 19 19 19 20 23 24 25 25 27 29 29 30 31 33 32 26 30 36 28 33 36 32 31 36 42 44 41 51 43

GFSSE_850_spd_135.txt.gz
Wind_Speed
7 13 13 10 10 9 9 9 10 12 13 13 12 10 6 5 5 6 7 8 10 12 13 13 11 8 6 5 4 3 1 2 3 3 3 4 6 7 10 13 14 9 10
8 11 11 9 10 10 9 9 11 11 12 13 13 11 8 6 5 6 7 7 8 10 12 11 10 9 7 5 4 2 0 1 3 3 2 3 6 8 10 12 11 8 9
4 8 11 10 11 11 11 11 11 11 12 12 12 12 10 8 6 5 7 7 8 9 11 11 10 9 7 5 4 3 1 1 2 3 7 6 6 7 9 10 9 6 8
3 6 12 13 13 13 12 11 11 11 11 12 13 13 12 10 8 6 7 8 8 8 10 12 11 9 8 6 5 4 3 2 1 3 5 4 5 5 9 10 8 8 8
7 5 8 12 13 13 12 11 11 11 11 12 13 14 14 13 12 9 8 8 8 9 8 11 11 10 9 8 8 6 5 3 2 4 4 2 5 6 8 9 8 8 8
6 4 2 7 10 11 12 12 12 12 12 12 14 15 16 15 15 13 11 10 9 9 10 10 11 10 10 9 9 8 7 4 3 3 6 7 7 8 8 8 9 9 10
5 2 1 4 8 10 11 12 12 13 13 13 14 16 17 17 17 17 15 13 12 11 11 11 12 11 11 11 10 9 8 5 3 9 5 7 10 11 10 8 9 10 11
5 4 4 3 7 10 11 13 13 14 14 15 15 16 18 19 20 20 19 17 16 14 13 13 13 12 13 13 12 11 10 7 6 2 8 10 13 11 12 9 11 11 12
6 4 2 6 7 9 10 12 13 14 15 16 17 18 19 19 20 21 21 20 19 17 15 14 14 15 15 14 14 13 12 10 8 9 8 11 13 13 12 12 12 12 13
5 5 3 4 7 9 9 11 12 14 15 17 18 19 20 21 22 23 23 23 21 20 18 16 16 17 17 16 15 14 14 13 11 10 11 14 14 16 12 13 12 14 13
5 4 5 5 5 7 8 10 12 14 16 17 19 20 20 21 22 25 26 26 24 23 21 20 19 18 18 18 17 16 16 15 9 9 9 15 18 18 15 13 13 15 14
5 4 5 6 6 8 7 10 9 10 12 14 15 17 20 22 18 19 20 24 27 26 24 24 21 20 21 19 16 16 18 14 11 12 15 16 19 18 16 15 15 16 17
5 1 7 8 4 8 9 11 10 10 10 13 13 14 16 17 20 20 22 24 29 30 29 28 27 26 25 22 16 19 11 12 12 14 17 19 22 20 18 17 18 17 18
9 7 8 10 11 12 13 11 11 13 16 15 14 15 17 19 21 22 24 23 26 24 29 26 27 27 27 21 19 18 19 16 14 14 17 22 25 21 20 19 19 19 22
10 9 9 9 8 10 13 16 16 12 13 12 14 14 17 18 20 21 23 25 27 28 29 32 34 29 28 26 25 26 23 20 18 18 16 21 24 21 21 22 21 21 20
11 11 7 8 7 7 9 11 13 14 15 13 15 17 18 19 22 22 24 24 27 28 30 32 30 33 29 28 29 27 24 23 25 23 20 22 25 22 23 24 24 23 24
10 11 9 8 7 5 5 7 9 12 12 13 16 19 19 19 20 22 21 24 23 25 28 29 29 36 26 26 28 27 28 29 25 26 26 25 23 26 26 27 27 26 26
10 12 14 12 10 7 5 6 6 8 11 11 13 14 16 17 20 21 21 24 26 26 26 22 26 27 21 22 23 29 29 30 29 29 28 29 28 24 27 28 29 29 28
11 12 13 13 13 11 8 5 8 8 8 8 8 11 11 13 15 18 17 18 23 26 25 14 18 16 18 23 27 30 28 31 32 34 30 28 30 31 29 32 31 31 30
11 13 13 12 11 11 10 8 6 7 7 7 9 13 13 14 14 12 12 16 16 15 17 17 19 20 19 22 28 30 33 39 39 36 38 36 34 34 33 35 30 31 31
8 10 11 13 14 12 12 12 10 11 9 9 11 16 16 17 18 16 16 16 16 17 19 20 16 19 24 23 26 29 30 33 35 35 37 42 42 37 36 38 35 34 33
7 8 10 11 13 14 13 13 12 11 10 9 12 13 16 17 18 18 19 19 18 18 19 18 16 16 18 21 25 27 25 27 31 37 47 52 45 43 40 41 37 36 33
8 9 11 12 14 15 15 14 14 11 10 11 14 13 16 17 17 19 19 19 21 19 16 17 17 17 19 18 17 18 13 19 23 26 33 31 44 46 42 42 40 39 39
7 8 9 10 12 13 13 12 14 13 14 15 15 16 18 17 18 18 19 21 22 21 21 19 15 18 17 21 20 20 30 29 23 27 25 24 35 43 48 46 44 44 46
7 7 9 10 12 14 16 15 13 13 13 14 16 19 17 18 17 16 18 22 21 22 23 24 23 21 21 22 21 19 21 26 34 28 27 32 32 32 36 41 44 43 43
6 8 9 10 12 14 16 16 15 15 15 15 17 17 16 16 16 16 21 22 24 23 22 24 25 26 26 25 28 26 22 22 23 23 25 31 34 32 30 35 41 48 46

GFSSE_850_spd_138.txt.gz
Wind_Speed
4 15 13 11 9 7 6 6 6 7 8 9 7 5 3 3 4 5 6 7 8 10 10 9 8 7 6 5 5 4 1 1 3 3 2 4 7 10 12 16 13 8 10
6 15 12 10 10 9 7 6 6 7 7 8 7 6 5 4 3 4 5 6 7 8 9 9 7 6 5 5 4 2 0 2 3 3 2 4 6 9 13 13 11 8 9
2 11 11 9 9 9 8 6 7 7 7 8 8 7 6 5 5 4 4 4 6 7 9 8 8 7 6 5 3 2 0 2 3 3 6 9 6 7 9 10 11 7 8
3 2 9 8 7 8 7 6 6 7 7 8 9 9 8 7 5 5 5 4 5 6 8 9 9 8 7 6 4 3 2 1 1 4 7 6 4 4 8 8 10 7 8
9 2 3 6 7 7 7 7 7 7 7 8 10 10 10 9 8 7 6 7 7 7 8 9 10 10 8 8 7 6 5 3 2 6 7 7 5 8 8 9 8 7 8
6 2 3 4 6 6 7 8 7 8 8 9 10 12 12 12 12 11 9 9 9 9 8 9 11 11 11 10 10 9 7 5 5 6 4 5 6 7 8 9 8 9 8
5 4 5 2 4 6 7 8 9 10 10 11 11 12 13 14 15 15 14 12 12 11 11 11 11 12 12 12 12 11 9 7 8 6 11 11 10 10 7 7 8 10 10
10 7 6 4 1 4 7 8 10 10 11 12 13 14 14 16 16 17 18 17 15 15 14 13 13 13 13 14 13 12 11 9 8 6 10 13 6 8 9 8 7 9 10
7 5 8 7 5 5 6 8 10 11 12 13 14 15 15 16 18 19 20 21 20 19 16 16 16 16 16 15 15 14 13 12 10 9 5 9 12 10 8 10 9 11 11
7 8 6 6 11 8 6 7 9 10 12 14 15 16 17 18 19 20 22 23 23 23 21 20 19 19 18 18 18 17 16 14 12 11 11 11 8 9 9 10 11 12 13
6 9 7 4 0 8 10 11 11 12 13 14 15 16 17 19 20 22 24 25 26 26 26 24 22 22 22 22 21 20 18 17 14 12 14 12 13 13 12 14 13 12 15
3 3 6 9 8 7 4 14 16 17 12 12 10 11 13 16 19 20 20 21 27 28 28 28 27 26 26 26 24 21 21 18 17 12 15 18 15 17 15 15 15 14 15
5 9 11 13 12 13 11 7 9 4 6 7 8 10 14 15 17 18 21 24 24 25 27 32 32 32 33 31 28 25 18 14 20 15 19 18 16 17 19 18 17 15 15
9 6 8 12 16 15 15 16 14 13 10 12 13 12 15 16 17 19 20 22 22 25 27 32 36 37 38 36 33 27 20 18 10 14 18 19 19 19 22 21 18 17 18
8 11 10 10 8 10 15 18 16 13 13 14 15 14 16 16 19 21 21 20 22 26 27 31 31 37 38 39 37 32 24 22 18 20 18 18 21 20 20 21 20 19 19
8 9 8 9 8 5 6 9 11 14 14 12 11 13 14 17 19 21 23 23 23 23 26 29 31 33 39 29 24 33 30 25 26 26 27 24 21 21 23 20 22 22 21
9 10 10 10 9 8 5 5 6 7 7 8 11 12 15 18 18 19 19 22 25 27 27 28 29 30 34 31 41 18 27 28 28 27 30 29 29 28 23 20 21 24 24
8 9 10 10 9 8 8 11 11 9 10 9 10 10 13 14 16 17 17 15 19 23 22 22 20 24 22 17 8 22 30 25 30 32 31 34 33 33 29 27 24 22 27
8 8 10 10 8 9 7 7 3 5 6 10 13 13 12 11 12 11 9 13 17 15 9 17 19 19 14 14 10 12 20 32 30 31 32 32 32 31 34 30 28 26 26
7 7 10 11 11 9 7 5 4 7 9 9 15 16 17 15 15 14 13 14 15 14 12 15 14 12 14 15 13 16 21 27 31 31 33 35 40 40 36 33 33 30 31
7 9 11 12 12 13 12 11 10 11 7 10 11 16 18 18 17 16 16 15 16 17 16 13 13 13 13 14 19 22 23 26 29 32 32 36 38 40 36 34 33 32 36
6 8 9 10 12 13 12 12 12 10 8 8 12 12 17 19 19 20 20 19 19 18 17 16 13 14 15 7 14 14 17 24 27 30 30 29 33 40 41 42 38 41 41
5 6 6 7 10 12 11 10 9 6 6 11 14 15 18 18 19 18 20 21 21 19 19 19 15 13 17 15 7 11 8 7 16 17 19 24 26 27 32 39 46 42 44
3 6 8 8 10 12 14 14 14 14 14 14 15 17 16 16 17 15 20 22 23 23 20 20 19 18 16 19 17 12 14 22 18 23 24 27 28 28 27 27 35 41 43
3 4 7 6 9 12 14 15 16 16 14 14 16 17 16 15 13 16 22 24 25 24 24 23 24 23 19 19 18 21 24 22 18 23 34 31 32 29 30 34 33 32 39
3 3 6 4 8 11 13 15 16 16 17 16 19 19 19 17 17 19 22 22 21 22 23 24 24 25 23 22 22 21 19 19 18 17 22 32 30 30 21 27 33 32 32

GFSSE_850_spd_141.txt.gz
Wind_Speed
14 17 16 14 13 11 10 9 9 10 8 6 4 4 5 6 6 5 4 5 7 8 9 9 8 8 7 6 5 4 2 1 2 4 4 6 8 11 13 14 13 12 12
11 16 14 13 12 11 10 9 8 8 8 7 5 4 4 5 5 5 4 4 5 7 8 8 7 7 6 5 6 4 2 2 3 4 5 7 9 10 12 11 11 11 11
8 13 13 11 10 10 9 8 8 7 7 7 5 5 4 4 4 4 4 4 5 6 7 7 7 7 6 5 4 3 2 3 4 5 8 8 9 11 10 8 10 9 10
7 11 10 9 9 8 8 7 7 7 7 7 7 6 5 4 4 3 4 4 5 6 8 8 8 8 8 6 5 3 2 2 4 6 5 8 7 9 9 8 9 9 9
6 8 9 7 7 7 6 6 6 6 6 7 8 8 8 7 6 5 4 5 6 6 8 9 10 10 10 9 6 5 3 3 5 8 7 7 3 6 8 9 9 9 9
5 5 5 6 6 5 5 6 6 6 7 8 9 9 10 9 9 9 8 7 8 8 8 10 11 12 12 11 9 7 5 5 5 10 8 6 8 8 9 9 10 10 11
5 8 7 6 4 4 5 6 6 7 8 9 10 10 11 11 11 12 12 11 10 10 11 11 12 14 15 14 12 11 8 8 7 12 10 11 11 9 8 9 11 11 12
8 9 8 5 2 1 3 6 8 9 9 10 10 11 11 12 13 14 15 16 15 14 14 15 14 14 16 16 15 13 11 10 9 10 11 11 13 11 9 10 11 12 13
12 8 9 8 5 2 4 6 7 8 9 10 11 12 13 14 15 16 17 18 19 18 18 18 18 18 17 18 17 16 14 13 12 13 9 13 15 13 10 12 12 12 15
11 6 6 4 2 5 8 6 6 7 9 10 12 13 15 16 16 17 17 19 20 22 22 22 22 21 21 21 20 19 18 16 14 15 16 13 14 17 14 12 14 13 15
12 11 8 4 1 4 7 7 9 8 11 10 12 14 15 15 17 18 17 18 21 23 25 26 26 25 25 25 24 23 21 20 17 16 17 18 13 15 16 13 12 15 15
4 4 6 8 9 9 8 7 6 7 5 4 9 6 6 9 10 12 15 16 18 20 26 28 29 29 28 30 29 26 26 22 20 18 18 18 14 21 16 14 13 16 16
7 9 8 8 11 15 14 8 2 6 13 11 16 15 13 11 12 14 15 15 19 20 24 26 30 32 34 34 33 30 29 26 23 20 19 20 17 21 17 18 14 16 17
7 8 10 10 11 17 17 14 8 6 9 13 16 14 11 14 16 16 14 15 17 18 22 25 30 31 32 36 36 31 29 29 24 19 21 21 18 20 19 17 16 17 18
9 11 10 10 8 8 12 14 11 6 6 10 9 10 14 17 15 17 18 18 17 17 21 25 28 29 31 29 29 21 12 30 28 23 20 20 22 22 20 19 19 21 20
8 9 9 8 7 6 7 8 7 6 9 7 8 13 15 13 14 15 15 16 17 19 22 24 24 26 27 29 26 24 26 12 21 25 25 20 19 22 19 21 20 21 22
8 7 6 7 7 6 6 9 9 8 6 6 5 9 9 11 12 14 16 17 17 17 18 17 18 18 19 20 20 19 14 27 30 34 28 22 27 26 24 25 24 22 24
7 9 9 7 7 7 7 6 8 9 11 11 10 10 10 9 13 13 15 15 16 17 19 18 16 16 15 12 11 8 11 20 28 42 32 26 26 31 31 29 27 25 23
5 7 8 8 7 6 4 2 5 5 10 12 13 12 12 11 11 11 11 12 11 11 11 13 13 11 11 11 9 7 7 12 20 36 37 34 33 33 35 35 32 31 28
4 6 7 7 8 7 6 4 5 5 8 10 14 15 17 16 15 14 13 13 13 14 13 12 14 10 9 9 13 14 13 18 23 27 32 34 34 34 34 35 34 34 34
4 6 8 7 8 6 5 5 5 8 6 7 12 13 16 17 17 17 17 16 14 15 15 14 14 14 11 11 12 11 19 23 25 26 27 30 32 34 35 37 39 40 40
3 1 6 8 9 9 10 9 5 2 5 8 12 12 16 16 17 19 19 19 19 16 15 14 15 14 13 7 9 10 9 14 17 21 22 23 26 25 25 26 28 32 36
2 1 3 5 7 9 10 10 8 4 5 9 14 15 16 16 19 18 20 21 22 21 20 18 15 13 16 13 6 5 5 5 15 19 19 22 19 20 22 22 23 26 33
3 4 4 5 6 8 10 11 13 15 15 17 18 19 18 18 20 21 22 22 21 20 19 18 17 17 14 16 13 16 13 13 8 17 22 22 26 30 30 30 32 31 26
6 7 4 4 5 7 8 10 12 13 14 15 17 18 18 18 19 21 21 21 20 19 19 18 16 15 15 15 16 19 20 25 20 18 31 31 34 31 29 30 33 30 28
10 9 7 4 3 4 7 9 11 13 15 16 18 20 21 22 22 23 23 21 20 19 18 18 17 15 14 12 13 16 17 12 16 16 23 39 39 43 31 32 29 29 31

GFSSE_850_spd_147.txt.gz
Wind_Speed
21 18 16 14 13 13 11 11 10 10 9 8 8 9 10 9 7 6 6 6 6 6 5 4 4 4 3 1 0 1 2 3 3 2 1 1 4 7 9 10 10 11 11
17 17 14 12 12 11 10 9 9 8 7 7 6 7 7 7 7 7 5 5 5 5 5 5 4 3 3 2 2 1 2 3 2 1 1 2 4 7 9 10 9 10 11
20 16 13 12 11 10 9 9 9 7 7 6 5 4 4 4 4 4 4 4 4 5 5 6 5 4 4 3 3 2 3 3 3 1 2 3 4 6 8 9 9 9 10
16 13 12 10 10 9 8 8 8 7 7 6 5 3 2 1 1 2 2 3 4 6 7 8 7 6 5 5 5 3 4 3 2 2 2 4 5 7 6 7 9 9 10
12 10 9 8 7 7 7 7 7 7 6 6 5 5 5 4 4 3 2 3 5 6 8 9 10 9 8 8 7 6 6 5 4 4 3 3 4 7 8 8 9 10 11
10 8 7 7 7 7 7 7 7 7 7 7 7 7 7 7 7 7 7 6 7 7 8 10 11 11 11 10 10 8 8 8 6 7 7 7 9 8 9 9 10 11 11
12 11 11 11 9 7 6 5 5 5 6 6 7 8 9 10 11 11 11 11 11 11 11 11 12 12 13 13 13 12 10 10 9 9 9 10 8 12 11 13 13 12 13
11 11 12 10 10 9 7 6 3 4 5 6 7 8 10 11 12 13 14 14 15 15 15 14 14 15 14 15 15 15 13 12 12 11 11 12 13 15 13 13 14 13 13
11 11 10 9 8 8 8 7 7 7 7 8 8 9 9 10 12 13 14 15 16 17 18 18 18 18 18 18 15 15 15 15 15 13 13 13 14 14 16 14 15 15 15
11 10 8 7 7 8 7 8 9 9 10 10 11 11 11 11 12 13 14 15 17 18 18 18 21 22 22 22 20 19 17 16 16 16 15 15 16 15 20 17 16 17 17
7 5 4 4 3 3 4 5 5 8 9 9 11 12 12 14 15 15 16 16 18 19 20 21 21 21 23 24 23 22 20 18 18 18 18 17 17 15 19 18 17 18 19
7 4 2 3 4 5 5 5 8 11 14 14 12 11 8 11 14 14 14 15 16 19 20 21 22 24 26 26 23 23 23 22 22 22 21 19 19 20 20 20 21 19 20
2 2 3 6 7 8 9 10 10 10 11 14 15 16 11 11 13 13 12 13 15 17 17 19 20 22 23 25 26 29 27 30 27 25 22 21 21 23 25 25 23 23 22
1 4 8 9 9 8 9 10 12 13 14 15 12 9 7 9 10 12 14 16 21 20 20 20 20 20 22 23 20 25 26 31 30 24 24 24 23 27 29 31 27 26 26
4 5 8 11 13 11 7 5 6 8 11 16 16 19 19 15 16 17 18 20 23 19 19 20 20 20 22 22 19 18 19 16 23 19 29 33 32 34 30 32 30 29 29
5 5 6 8 9 9 7 5 3 4 6 10 15 19 21 21 20 19 18 18 19 19 18 19 17 17 20 17 14 13 16 15 20 24 31 39 41 34 32 35 32 31 28
6 5 5 5 4 4 4 3 3 3 5 6 7 8 10 11 11 12 13 14 16 17 16 16 18 18 17 16 15 15 17 20 22 25 33 37 40 36 33 33 34 32 30
4 2 3 2 2 2 2 1 2 3 4 5 6 8 9 11 12 12 12 13 13 13 13 13 14 13 15 15 16 18 20 22 24 26 30 36 52 40 33 33 32 33 31
6 5 4 4 4 4 3 2 2 3 5 7 8 9 11 12 14 15 16 17 16 15 15 15 14 16 15 16 17 17 19 23 26 22 22 33 41 38 32 34 30 31 35
9 8 7 8 7 6 4 3 2 4 6 8 9 11 12 13 14 15 16 17 19 20 20 17 16 15 17 19 20 20 20 21 24 24 23 24 27 36 35 32 33 37 37
11 9 9 9 9 8 6 3 3 3 2 4 7 9 11 13 14 16 18 19 20 22 23 22 21 20 17 18 21 22 23 22 23 25 25 23 24 27 38 41 38 37 37
11 10 8 9 10 10 8 6 4 1 2 5 7 9 12 14 15 16 17 18 19 19 19 21 22 22 19 17 15 17 17 19 21 23 24 24 26 27 27 27 30 35 33
10 8 8 10 11 11 10 7 4 2 3 5 7 10 13 16 17 18 18 18 18 18 18 17 16 16 18 14 11 8 6 6 18 19 18 18 19 23 28 28 26 26 27
11 9 9 10 9 8 7 5 5 2 2 7 11 13 14 15 16 17 17 17 17 16 15 14 14 14 13 13 6 10 9 12 8 19 23 19 21 20 21 22 26 22 20
10 10 10 8 7 6 6 5 3 2 5 7 9 11 13 14 15 16 17 17 17 16 15 13 11 10 11 11 11 12 12 16 16 17 28 35 34 28 25 27 25 25 25
12 9 6 6 7 5 4 3 2 2 4 6 7 9 12 13 13 14 16 16 16 16 16 14 14 12 10 9 11 10 11 8 12 13 24 39 38 40 34 33 32 30 28